Regional Weather Roundup
Issued by NWS Columbia, SC

Home | Current Version | Previous Version | Text Only | Print | Product List | Glossary On
Versions: 1 2 3 4 5 6 7 8 9 10 11 12 13 14 15 16 17 18 19 20 21 22 23 24 25 26 27 28 29 30 31 32 33 34 35 36 37 38 39 40 41 42 43 44 45 46 47 48 49 50
000
ASUS42 KCAE 300810
RWRCAE
REGIONAL WEATHER ROUNDUP
NATIONAL WEATHER SERVICE COLUMBIA SC
400 AM EDT SAT AUG 30 2014

NOTE: "FAIR" INDICATES FEW OR NO CLOUDS BELOW 12,000 FEET WITH NO
SIGNIFICANT WEATHER AND/OR OBSTRUCTIONS TO VISIBILITY.

NOT ALL STATIONS ARE QUALITY CONTROLLED BY THE NATIONAL
WEATHER SERVICE. USE DATA WITH CAUTION...ESPECIALLY
DEWPOINT OBSERVATIONS.

SCZ001>056-GAZ040-063>065-077-300900-
...UPSTATE SOUTH CAROLINA...

CITY           SKY/WX    TMP DP  RH WIND       PRES   REMARKS
ANDERSON       CLEAR     72  64  76 CALM      30.15S
LIBERTY        FAIR      71  32  23 MISG      30.16F
SPARTANBURG    FAIR      73  73 100 NE3       30.17S
CLEMSON        CLEAR     75  69  81 NE5       30.17S
GREENVILLE     CLEAR     72  69  90 N7        30.18F
GREENWOOD      CLEAR     69  63  81 E3        30.15F
GREER          CLEAR     72  70  93 N5        30.16S
ROCK HILL      CLEAR     71  69  93 SW3       30.17F
LAURENS        FAIR      72  63  73 SE3       30.16F


...CENTRAL SOUTH CAROLINA...

CITY           SKY/WX    TMP DP  RH WIND       PRES   REMARKS
COLUMBIA APT   PTCLDY    75  68  78 CALM      30.13F
COLUMBIA OWENS CLEAR     74  69  85 CALM      30.15F
DARLINGTON     CLEAR     72  66  83 CALM      30.16F
FLORENCE       PTCLDY    74  71  91 CALM      30.14F
MCENTIRE ANGB  CLEAR     70  70 100 CALM      30.14F
ORANGEBURG     CLEAR     71  68  90 CALM      30.14F
SUMTER SHAW    CLEAR     73  73 100 NE6       30.13S
NEWBERRY       FAIR      72  68  88 SE3       30.18S
AIKEN          FAIR      72  72 100 CALM      30.17F
BARNWELL       FAIR      72  70  94 CALM      30.14S
MANNING        CLOUDY    72 N/A N/A CALM      30.14S
CAMDEN         FAIR      72  68  88 CALM      30.16F
LANCASTER      FAIR      72  72 100 CALM      30.17S
WINNSBORO      FAIR      72  68  88 CALM      30.16F


...EASTERN AND COASTAL SOUTH CAROLINA...

CITY           SKY/WX    TMP DP  RH WIND       PRES   REMARKS
MYRTLE BEACH   CLEAR     79  73  83 CALM      30.14S
N MYRTLE BCH   CLEAR     77  75  93 CALM      30.14S
CONWAY         FAIR      70  70 100 CALM      30.14S
MARION         FAIR      72  72 100 CALM      30.15S
HARTSVILLE       N/A     73 N/A N/A CALM      30.16F
FLORENCE       PTCLDY    74  71  91 CALM      30.14F
DARLINGTON     CLEAR     72  66  83 CALM      30.16F
CHARLESTON APT PTCLDY    77  74  90 CALM      30.13S
MOUNT PLEASANT LGT RAIN  73  72  94 CALM      30.13S
WALTERBORO     SUNNY     70 N/A N/A CALM      30.14S
BEAUFORT       CLEAR     76  73  91 CALM      30.12S


...EASTERN GEORGIA...

CITY           SKY/WX    TMP DP  RH WIND       PRES   REMARKS
AUGUSTA BUSH F CLEAR     70  69  97 CALM      30.12F
AUGUSTA DANIEL CLEAR     75  71  87 E6        30.13F
THOMSON        CLEAR     74  73  97 CALM      30.16F
WASHINGTON     FAIR      77  73  88 SE3       30.12F
SYLVANIA       MOSUNNY   69  69 100 CALM      30.13S
STATESBORO     CLEAR     71  71 100 CALM      30.12S
SAVANNAH       CLEAR     76  73  91 CALM      30.11F


...SOUTHERN NORTH CAROLINA...

CITY           SKY/WX    TMP DP  RH WIND       PRES   REMARKS
CHARLOTTE      PTCLDY    73  69  87 CALM      30.18S
MONROE         CLEAR     71  69  93 CALM      30.16F FOG
WADESBORO      SUNNY     71  69  93 CALM      30.16S
ROCKINGHAM     PTSUNNY   73  70  92 CALM      30.16S
RUTHERFORDTON  PTCLDY    73  71  92 CALM      30.19S
ASHEVILLE      MOCLDY    70  67  90 CALM      30.24S

$$


USA.gov is the U.S. government's official web portal to all federal, state and local government web resources and services.